• In Hungary
  • List of Countries
  • For 7 days
  • Water Temperature
  • Satellite Maps
  • Weather Map
  • News
  • Weather Widgets
  • user-avatar
    Login

    Hourly Weather Nechaevschina

    Today, 21 April, Saturday

    Time Temperature Precipitation Wind Pressure Humidity
    00:00 +10°C° 0 mm 4 mps 736 mmHg 81%
    01:00 +10°C° 0 mm 3 mps 736 mmHg 86%
    02:00 +9°C° 0 mm 3 mps 734 mmHg 91%
    03:00 +9°C° 0 mm 3 mps 733 mmHg 92%
    04:00 +10°C° 0 mm 4 mps 733 mmHg 93%
    05:00 +10°C° 0 mm 4 mps 732 mmHg 93%
    06:00 +11°C° 0 mm 4 mps 731 mmHg 87%
    07:00 +12°C° 0 mm 5 mps 730 mmHg 81%
    08:00 +13°C° 0 mm 6 mps 728 mmHg 72%
    09:00 +14°C° 0.1 mm 6 mps 727 mmHg 69%
    10:00 +15°C° 0.1 mm 7 mps 726 mmHg 66%
    11:00 +16°C° 0.1 mm 7 mps 725 mmHg 63%
    12:00 +16°C° 0.7 mm 8 mps 725 mmHg 63%
    13:00 +15°C° 0.7 mm 8 mps 724 mmHg 62%
    14:00 +13°C° 0.7 mm 8 mps 724 mmHg 61%
    15:00 +11°C° 0.2 mm 9 mps 725 mmHg 63%
    16:00 +8°C° 0.2 mm 9 mps 725 mmHg 65%
    17:00 +6°C° 0.2 mm 9 mps 725 mmHg 67%
    18:00 +6°C° 0.2 mm 8 mps 726 mmHg 68%
    19:00 +5°C° 0.2 mm 8 mps 727 mmHg 70%
    20:00 +4°C° 0.2 mm 8 mps 727 mmHg 71%
    21:00 +4°C° 0 mm 7 mps 728 mmHg 73%
    22:00 +4°C° 0 mm 7 mps 728 mmHg 74%
    23:00 +3°C° 0 mm 6 mps 729 mmHg 76%

    Tomorrow, 22 April, Sunday

    Time Temperature Precipitation Wind Pressure Humidity
    00:00 +3°C° 0 mm 6 mps 729 mmHg 78%
    01:00 +2°C° 0 mm 5 mps 730 mmHg 80%
    02:00 +2°C° 0 mm 5 mps 731 mmHg 82%
    03:00 +2°C° 0 mm 5 mps 731 mmHg 82%
    04:00 +3°C° 0 mm 4 mps 731 mmHg 82%
    05:00 +1°C° 0 mm 4 mps 731 mmHg 83%
    06:00 +1°C° 0.1 mm 4 mps 732 mmHg 81%
    07:00 +1°C° 0.1 mm 4 mps 732 mmHg 79%
    08:00 +1°C° 0.1 mm 4 mps 732 mmHg 78%
    09:00 +3°C° 0 mm 4 mps 733 mmHg 75%
    10:00 +3°C° 0 mm 4 mps 733 mmHg 71%
    11:00 +4°C° 0 mm 4 mps 734 mmHg 68%
    12:00 +4°C° 0 mm 4 mps 734 mmHg 66%
    13:00 +4°C° 0 mm 4 mps 735 mmHg 64%
    14:00 +4°C° 0 mm 4 mps 735 mmHg 62%
    15:00 +4°C° 0 mm 4 mps 735 mmHg 62%
    16:00 +4°C° 0 mm 4 mps 736 mmHg 61%
    17:00 +3°C° 0 mm 4 mps 736 mmHg 61%
    18:00 +3°C° 0 mm 4 mps 737 mmHg 64%
    19:00 +2°C° 0 mm 3 mps 737 mmHg 67%
    20:00 +1°C° 0 mm 3 mps 738 mmHg 69%
    21:00 +1°C° 0 mm 2 mps 738 mmHg 72%
    22:00 -1°C° 0 mm 2 mps 739 mmHg 75%
    23:00 0°C° 0 mm 1 mps 739 mmHg 77%

    Day after tomorrow, 23 April, Monday

    Time Temperature Precipitation Wind Pressure Humidity
    00:00 0°C° 0 mm 1 mps 740 mmHg 79%
    01:00 -1°C° 0 mm 1 mps 740 mmHg 80%
    02:00 -1°C° 0 mm 1 mps 741 mmHg 81%
    03:00 -1°C° 0 mm 1 mps 741 mmHg 81%
    04:00 -1°C° 0 mm 1 mps 741 mmHg 81%
    05:00 -1°C° 0 mm 1 mps 742 mmHg 82%
    06:00 -2°C° 0 mm 2 mps 742 mmHg 71%
    07:00 +1°C° 0 mm 2 mps 742 mmHg 61%
    08:00 +1°C° 0 mm 3 mps 742 mmHg 50%
    09:00 +3°C° 0 mm 2 mps 742 mmHg 46%
    10:00 +4°C° 0 mm 2 mps 742 mmHg 42%
    11:00 +6°C° 0 mm 2 mps 742 mmHg 37%
    12:00 +6°C° 0 mm 2 mps 742 mmHg 36%
    13:00 +7°C° 0 mm 2 mps 742 mmHg 36%
    14:00 +7°C° 0 mm 2 mps 742 mmHg 35%
    15:00 +7°C° 0 mm 2 mps 742 mmHg 37%
    16:00 +7°C° 0 mm 2 mps 741 mmHg 38%
    17:00 +7°C° 0 mm 2 mps 741 mmHg 40%
    18:00 +6°C° 0 mm 1 mps 741 mmHg 48%
    19:00 +4°C° 0 mm 1 mps 741 mmHg 55%
    20:00 +2°C° 0 mm 1 mps 741 mmHg 63%
    21:00 +1°C° 0 mm 1 mps 741 mmHg 64%
    22:00 +1°C° 0 mm 1 mps 741 mmHg 66%
    23:00 +1°C° 0 mm 1 mps 741 mmHg 67%

    24 April, Tuesday

    Time Temperature Precipitation Wind Pressure Humidity
    00:00 0°C° 0 mm 1 mps 741 mmHg 68%
    01:00 0°C° 0 mm 1 mps 741 mmHg 69%
    02:00 0°C° 0 mm 1 mps 741 mmHg 69%
    03:00 -2°C° 0 mm 2 mps 741 mmHg 68%
    04:00 -1°C° 0 mm 2 mps 741 mmHg 67%
    05:00 -1°C° 0 mm 2 mps 740 mmHg 66%
    06:00 +2°C° 0 mm 2 mps 740 mmHg 60%
    07:00 +3°C° 0 mm 3 mps 740 mmHg 54%
    08:00 +4°C° 0 mm 3 mps 740 mmHg 48%
    09:00 +7°C° 0 mm 3 mps 739 mmHg 46%
    10:00 +8°C° 0 mm 3 mps 739 mmHg 45%
    11:00 +10°C° 0 mm 4 mps 738 mmHg 43%
    12:00 +10°C° 0 mm 4 mps 738 mmHg 45%
    13:00 +11°C° 0 mm 4 mps 738 mmHg 47%
    14:00 +11°C° 0 mm 4 mps 737 mmHg 49%
    15:00 +10°C° 0.1 mm 4 mps 737 mmHg 56%
    16:00 +9°C° 0.1 mm 3 mps 736 mmHg 64%
    17:00 +9°C° 0.1 mm 3 mps 736 mmHg 71%
    18:00 +8°C° 0.1 mm 3 mps 736 mmHg 77%
    19:00 +7°C° 0.1 mm 3 mps 736 mmHg 84%
    20:00 +5°C° 0.1 mm 3 mps 735 mmHg 90%
    21:00 +5°C° 0.1 mm 3 mps 735 mmHg 92%
    22:00 +5°C° 0.1 mm 3 mps 735 mmHg 93%
    23:00 +5°C° 0.1 mm 3 mps 735 mmHg 95%

    25 April, Wednesday

    Time Temperature Precipitation Wind Pressure Humidity
    00:00 +5°C° 0.1 mm 3 mps 734 mmHg 95%
    01:00 +5°C° 0.1 mm 3 mps 734 mmHg 95%
    02:00 +5°C° 0.1 mm 3 mps 734 mmHg 96%
    03:00 +5°C° 0.1 mm 3 mps 733 mmHg 95%
    04:00 +5°C° 0.1 mm 3 mps 733 mmHg 95%
    05:00 +5°C° 0.1 mm 3 mps 732 mmHg 95%
    06:00 +5°C° 0.9 mm 3 mps 732 mmHg 94%
    07:00 +5°C° 0.9 mm 4 mps 731 mmHg 92%
    08:00 +5°C° 0.9 mm 4 mps 731 mmHg 91%
    09:00 +6°C° 0.5 mm 4 mps 731 mmHg 88%
    10:00 +6°C° 0.5 mm 4 mps 731 mmHg 86%
    11:00 +7°C° 0.5 mm 4 mps 731 mmHg 84%
    12:00 +8°C° 0.3 mm 5 mps 731 mmHg 77%
    13:00 +8°C° 0.3 mm 5 mps 731 mmHg 71%
    14:00 +9°C° 0.3 mm 5 mps 731 mmHg 64%
    15:00 +8°C° 0.4 mm 5 mps 731 mmHg 68%
    16:00 +8°C° 0.4 mm 5 mps 731 mmHg 71%
    17:00 +7°C° 0.4 mm 5 mps 731 mmHg 75%
    18:00 +6°C° 0.3 mm 4 mps 732 mmHg 79%
    19:00 +6°C° 0.3 mm 4 mps 732 mmHg 84%
    20:00 +5°C° 0.3 mm 4 mps 733 mmHg 89%
    21:00 +5°C° 0.3 mm 3 mps 733 mmHg 90%
    22:00 +5°C° 0.3 mm 3 mps 733 mmHg 91%
    23:00 +5°C° 0.3 mm 3 mps 733 mmHg 92%

    26 April, Thursday

    Time Temperature Precipitation Wind Pressure Humidity
    00:00 +4°C° 0.1 mm 3 mps 733 mmHg 92%
    01:00 +4°C° 0.1 mm 3 mps 734 mmHg 92%
    02:00 +4°C° 0.1 mm 3 mps 734 mmHg 92%
    03:00 +3°C° 0 mm 3 mps 734 mmHg 93%
    04:00 +3°C° 0 mm 3 mps 734 mmHg 94%
    05:00 +3°C° 0 mm 3 mps 734 mmHg 95%
    06:00 +3°C° 0 mm 3 mps 734 mmHg 92%
    07:00 +4°C° 0 mm 3 mps 735 mmHg 89%
    08:00 +5°C° 0 mm 3 mps 735 mmHg 86%
    09:00 +7°C° 0 mm 3 mps 735 mmHg 82%
    10:00 +8°C° 0 mm 3 mps 735 mmHg 78%
    11:00 +9°C° 0 mm 3 mps 735 mmHg 74%
    12:00 +9°C° 0 mm 3 mps 735 mmHg 73%
    13:00 +9°C° 0 mm 3 mps 734 mmHg 73%
    14:00 +9°C° 0 mm 3 mps 734 mmHg 72%
    15:00 +9°C° 0 mm 3 mps 734 mmHg 72%
    16:00 +9°C° 0 mm 2 mps 734 mmHg 72%
    17:00 +9°C° 0 mm 2 mps 733 mmHg 72%
    18:00 +8°C° 0 mm 2 mps 734 mmHg 77%
    19:00 +7°C° 0 mm 2 mps 734 mmHg 82%
    20:00 +6°C° 0 mm 2 mps 734 mmHg 87%
    21:00 +6°C° 0 mm 2 mps 734 mmHg 90%
    22:00 +5°C° 0 mm 2 mps 734 mmHg 93%
    23:00 +5°C° 0 mm 2 mps 734 mmHg 95%
    Show more